GFSWCAN_850_rhum_003.txt.gz
RH
96 91 90 87 88 94 100 98 96 97 96 97 98 99 100 99 99 100 98 100 99 79 73 64 66 77 100 91 59 67 67 72 89 80 68 64 54 50 55 61 78 83 88 93 96 98 83 39 46 44 50 47 41 40
98 90 92 88 88 95 100 97 93 92 96 94 97 100 100 98 100 100 100 100 98 97 94 78 71 66 85 95 66 64 71 65 84 90 62 57 60 42 41 58 43 64 45 45 47 54 48 46 51 53 50 47 47 48
98 94 92 87 89 95 100 97 90 91 94 96 98 99 100 100 100 99 99 100 100 98 93 90 91 80 75 88 88 75 77 71 78 71 68 63 55 45 47 42 42 42 43 41 42 48 47 49 56 54 49 49 52 53
98 95 92 90 87 90 99 94 90 93 95 96 98 100 100 100 100 99 99 99 97 89 79 85 86 84 78 76 78 92 82 76 82 84 86 70 62 58 56 47 42 43 45 47 51 55 55 54 53 55 57 58 55 51
99 96 92 90 90 87 99 93 90 93 98 97 98 100 100 100 100 100 100 100 94 96 84 80 93 86 77 74 59 62 65 64 65 75 80 76 63 64 59 52 49 48 41 47 45 42 40 47 54 59 60 56 49 46
100 98 93 91 92 87 100 94 91 94 98 97 99 100 100 100 100 100 100 98 98 94 97 87 97 95 81 78 83 84 76 70 73 67 73 72 76 62 71 60 41 42 44 44 37 45 44 51 59 60 60 56 54 52
98 97 94 92 94 86 98 92 88 96 99 98 99 100 100 99 100 99 97 99 93 96 97 99 87 98 86 85 83 87 81 78 80 80 75 69 67 66 60 58 43 45 50 52 52 53 56 59 62 63 58 55 55 51
100 99 94 94 93 90 97 96 89 97 100 99 100 100 100 100 100 100 91 90 100 97 91 100 100 96 91 91 88 90 87 86 92 83 81 68 72 65 72 52 49 54 56 57 58 55 57 61 68 71 59 57 50 39
98 92 84 93 93 62 100 93 90 98 98 99 100 100 100 100 100 98 92 98 100 96 98 98 100 100 97 99 94 89 94 85 94 78 74 76 70 89 66 55 55 59 57 62 66 62 66 68 69 63 56 50 38 37
96 79 82 84 79 79 96 93 93 98 98 98 100 100 100 99 95 92 99 99 100 94 82 84 83 99 94 94 96 86 93 93 100 90 92 87 81 64 65 60 58 65 65 60 66 86 74 68 62 58 48 39 40 35
84 85 84 82 55 88 95 92 95 99 98 100 100 99 100 94 77 80 100 96 94 100 95 86 80 96 93 93 93 91 98 99 100 89 88 86 80 71 70 63 65 67 58 59 53 51 59 56 56 45 35 34 29 32
79 83 82 82 64 88 94 92 98 100 100 98 97 98 95 74 82 96 98 97 98 95 95 87 90 80 88 72 88 86 98 94 99 79 90 88 66 70 76 77 78 70 67 64 57 60 60 53 36 31 29 32 37 41
82 81 72 47 91 90 99 93 99 100 100 100 98 100 88 99 100 97 97 94 94 100 100 97 98 82 76 72 91 85 99 90 78 90 86 74 78 86 78 79 78 75 68 63 60 54 40 31 29 28 34 42 48 50
78 64 50 66 84 91 96 97 98 99 100 100 100 100 100 100 90 89 79 94 88 99 100 93 90 86 80 94 79 98 80 78 90 91 79 58 71 80 84 85 78 72 65 58 47 33 29 28 35 42 48 50 52 57
56 44 36 73 81 92 94 98 99 99 100 100 100 100 99 94 100 97 94 96 100 100 89 91 91 80 90 94 73 88 95 90 76 73 69 76 75 81 89 82 71 66 61 44 34 33 37 42 47 48 50 54 60 61
40 33 59 69 82 80 98 98 100 99 99 100 100 100 95 98 99 99 99 98 98 91 70 70 98 98 95 89 90 88 83 83 80 92 79 77 76 83 88 76 64 51 42 36 38 41 42 41 43 47 55 61 63 63
41 64 63 68 66 78 98 98 99 99 100 100 100 90 94 94 94 92 98 98 93 79 97 96 96 96 82 89 83 72 82 86 91 84 79 71 68 83 86 67 47 39 41 43 40 39 44 48 50 56 60 64 65 65
50 52 52 58 72 84 97 98 99 99 98 99 97 96 89 89 89 93 100 97 82 78 78 99 85 98 92 93 85 83 86 86 87 82 77 70 72 81 76 61 41 41 39 39 44 48 52 54 58 62 68 72 71 70
44 46 52 67 83 98 98 98 98 98 98 98 98 100 99 99 99 97 97 92 76 60 65 79 89 86 77 74 84 96 89 80 78 66 56 67 74 77 66 43 40 44 46 51 56 58 62 66 67 72 75 75 73 73
30 41 57 65 85 97 98 98 98 98 96 98 98 99 99 100 100 100 98 85 78 82 97 96 63 58 64 75 70 76 74 74 64 64 69 56 48 45 50 51 54 58 59 61 62 63 66 71 75 77 76 76 77 77
31 41 47 65 84 94 97 98 97 98 98 98 98 98 99 99 99 99 99 99 98 100 98 99 94 91 81 76 72 68 68 67 52 53 67 71 69 60 62 64 62 61 58 62 66 74 76 78 79 81 82 82 84 82
47 49 60 65 81 84 97 96 98 98 98 98 98 98 98 98 98 99 100 99 98 98 98 98 99 98 93 81 80 75 70 63 70 58 60 63 69 66 62 58 58 62 68 72 74 77 81 84 86 87 87 84 80 64
48 57 63 73 74 78 94 96 97 97 96 96 97 96 96 96 98 99 96 98 98 97 98 98 90 83 84 86 80 73 64 52 55 61 64 60 55 55 57 65 72 70 73 81 84 87 88 90 89 87 81 66 54 52
59 59 63 75 84 90 83 95 97 95 94 93 94 94 94 95 97 95 92 91 98 100 98 92 78 77 76 70 66 66 64 58 55 52 50 49 57 70 75 77 81 83 84 87 91 90 89 89 85 73 58 53 55 50
62 75 72 83 78 85 90 87 93 90 93 94 94 94 94 97 94 93 89 93 96 97 98 92 81 68 60 67 65 58 54 48 41 45 63 65 62 70 78 82 85 85 90 88 89 88 86 81 63 55 56 54 46 37
87 94 96 90 92 85 88 92 92 94 93 94 94 94 97 94 92 93 88 98 96 96 96 96 74 64 69 69 67 66 62 62 57 53 74 78 74 69 71 76 83 92 92 91 86 83 69 57 57 56 50 42 34 33
80 87 91 100 96 87 78 73 74 85 93 94 93 94 94 94 93 88 100 95 95 96 96 96 75 61 60 68 69 70 70 68 62 56 63 69 71 76 81 79 81 82 84 80 69 60 58 59 55 47 36 35 39 42
82 88 90 86 92 94 89 81 83 90 84 93 94 94 94 93 91 100 97 96 96 96 96 96 97 96 96 93 78 68 69 66 64 66 70 76 80 81 82 82 80 81 71 64 60 62 58 50 39 36 40 44 43 42
93 94 90 97 94 96 96 89 88 94 100 95 88 90 91 99 97 96 96 96 96 96 96 96 96 94 78 69 70 70 66 68 65 68 71 75 82 84 82 76 71 64 64 65 60 52 43 38 42 46 46 46 46 45
93 97 93 99 94 88 97 97 100 99 93 90 94 94 96 96 96 96 96 96 95 96 96 96 94 83 69 68 70 76 78 78 77 74 71 73 76 77 74 69 70 70 69 62 50 42 41 48 49 49 51 52 52 48
99 98 97 93 97 99 98 100 98 97 94 89 84 88 97 95 95 95 95 95 96 96 96 94 84 79 77 76 74 74 76 75 74 74 73 76 76 75 72 74 76 71 59 50 45 46 51 54 55 56 58 57 48 41
99 95 93 100 99 100 100 100 98 95 94 90 92 92 93 92 93 90 88 91 91 92 92 89 86 85 83 83 82 80 80 80 79 80 81 80 80 79 81 80 71 62 54 50 52 56 58 57 58 59 54 42 42 43
97 96 97 96 98 99 99 97 97 95 94 98 100 100 100 97 95 90 89 88 88 89 91 93 93 92 92 92 92 91 91 91 91 92 94 92 89 87 81 74 68 62 59 60 61 61 61 62 59 45 40 41 40 44

GFSWCAN_850_rhum_006.txt.gz
RH
96 95 97 93 89 88 86 89 100 100 89 88 90 95 98 100 100 100 98 100 99 92 79 73 70 76 95 98 89 74 83 87 96 90 88 85 70 75 87 76 87 90 89 88 97 99 92 43 47 49 56 43 39 41
94 98 93 92 91 92 87 89 99 100 91 91 90 96 98 100 100 100 100 100 100 98 96 84 84 73 78 89 92 82 79 70 78 86 82 69 66 51 60 91 68 85 72 79 78 72 52 44 52 48 48 43 44 49
89 95 96 88 94 91 88 88 100 99 91 91 90 82 98 100 100 100 100 100 100 99 93 92 92 83 79 83 98 90 76 78 80 70 72 77 62 61 61 58 68 57 59 56 52 55 56 53 51 50 48 48 50 51
86 93 92 91 93 88 88 86 97 99 94 90 89 87 97 100 99 100 99 99 100 98 93 95 91 89 86 87 97 96 94 81 82 84 92 90 77 64 71 54 57 51 52 55 64 59 55 52 51 51 51 53 52 52
87 85 90 97 95 87 90 87 94 97 90 92 95 95 96 100 100 100 100 99 100 99 97 90 89 88 84 84 90 97 97 95 87 97 97 94 79 72 71 61 59 53 51 58 60 51 47 52 53 53 54 55 54 51
93 92 95 94 96 90 92 89 94 95 90 94 99 97 98 100 100 100 100 99 100 99 98 98 96 93 89 89 82 86 80 77 69 71 84 87 81 76 85 79 47 43 40 40 45 45 43 53 56 57 56 55 54 48
98 97 93 100 97 80 92 88 85 94 97 92 98 98 97 100 100 99 90 92 88 98 99 99 96 97 97 97 95 86 78 75 82 79 85 79 75 72 76 80 51 45 47 46 46 47 62 59 61 60 56 57 52 49
98 96 86 79 79 79 92 81 89 93 91 95 100 98 100 100 100 100 88 88 99 98 95 100 100 98 90 91 96 90 88 87 85 86 80 81 76 73 85 65 47 51 52 52 50 49 53 59 62 62 56 54 48 41
93 90 80 76 78 82 89 81 89 97 91 97 94 96 100 100 100 98 98 99 100 98 98 99 100 100 94 96 92 88 90 92 86 89 87 85 85 95 76 64 53 55 54 60 58 57 60 62 66 62 58 51 42 38
80 81 77 78 82 82 52 90 98 95 84 100 100 100 98 97 99 99 100 99 99 98 95 97 89 97 93 91 97 90 93 96 100 92 88 97 95 68 63 59 52 56 54 57 67 78 72 73 67 64 52 44 37 36
79 75 77 82 87 65 92 87 99 85 99 100 100 99 99 97 95 85 100 100 99 100 98 89 89 97 92 93 94 91 98 100 96 92 92 98 92 84 66 60 57 58 57 57 54 54 60 58 63 54 46 40 34 29
73 76 78 73 77 72 86 90 98 96 98 100 100 100 100 93 87 98 98 100 99 95 93 93 93 82 83 73 90 90 99 98 95 87 89 91 86 70 74 67 66 64 63 62 54 57 64 63 55 46 37 32 31 35
70 64 51 45 40 86 100 96 97 95 98 100 100 100 99 100 100 97 94 93 97 100 97 93 97 76 75 70 93 94 97 98 84 89 88 91 84 72 75 76 75 71 68 65 65 62 60 52 40 32 29 35 38 40
55 40 31 36 65 99 100 99 99 97 99 100 100 99 100 99 94 84 89 90 84 95 100 89 89 93 78 96 91 89 93 88 93 96 90 92 74 79 79 77 75 71 65 61 59 54 41 32 32 35 35 39 38 41
40 30 32 48 54 98 100 100 100 98 99 99 100 100 98 97 99 97 99 99 97 99 83 81 83 84 98 92 88 90 94 94 90 89 90 80 77 83 82 76 66 61 57 53 42 34 30 30 32 40 44 44 46 50
39 34 42 42 54 85 100 99 99 99 100 99 100 100 99 97 99 98 99 98 98 92 70 66 98 98 94 93 95 94 93 93 85 96 82 76 84 88 79 70 62 57 47 36 32 30 33 35 36 40 47 53 56 57
41 48 37 49 56 65 94 98 99 99 99 100 100 97 94 91 92 93 96 97 94 79 95 97 90 88 91 96 94 87 90 94 98 84 75 74 86 82 66 64 58 46 38 36 37 38 36 39 43 46 50 60 64 65
51 36 35 54 60 74 95 98 98 99 99 99 100 99 90 90 91 96 98 97 84 79 78 99 86 98 94 93 95 93 94 92 84 81 77 82 89 76 65 60 52 41 39 41 38 39 43 47 49 58 65 70 70 68
44 34 37 47 68 99 98 97 98 99 99 99 99 99 98 98 97 92 96 91 82 69 66 86 91 96 96 93 97 95 82 86 82 78 79 87 86 72 59 47 44 43 41 41 46 48 52 58 62 68 71 71 68 68
36 31 36 42 63 98 98 97 97 98 98 98 100 98 100 99 99 100 98 82 65 65 92 93 85 71 71 71 69 81 72 75 73 86 82 82 77 58 48 44 44 45 47 54 58 59 61 67 73 75 74 72 72 72
34 33 32 47 69 88 97 96 96 98 97 98 98 99 99 100 100 100 99 97 98 100 99 93 88 77 84 83 76 76 73 68 75 80 89 80 60 47 53 54 53 55 53 59 59 69 70 69 72 74 74 75 77 80
45 41 49 60 72 75 96 96 97 97 98 98 97 99 99 99 99 99 100 98 98 98 99 100 99 92 82 80 78 74 62 55 67 77 72 60 67 62 64 63 57 56 55 57 59 64 70 74 77 79 81 82 81 74
46 54 58 66 65 69 82 88 95 96 97 96 97 97 98 98 98 99 97 97 97 97 98 98 98 99 95 94 87 83 65 48 58 65 70 70 66 60 54 55 51 46 54 68 72 74 78 82 85 85 83 76 61 52
56 58 53 66 75 94 74 90 94 96 97 96 96 96 96 97 97 97 96 96 98 97 97 97 97 98 98 96 89 84 76 63 78 77 69 59 52 59 56 57 65 67 65 69 79 83 86 87 85 79 66 54 52 51
61 67 67 85 71 87 92 92 93 95 96 96 96 96 96 96 97 96 96 96 96 97 97 96 96 93 92 96 98 97 99 88 77 60 62 49 44 59 64 70 78 80 84 82 87 87 86 83 73 59 54 54 48 38
68 82 88 89 92 91 97 98 95 95 96 96 96 96 97 97 95 95 94 96 95 96 96 96 92 86 89 86 85 84 76 63 53 45 64 64 58 55 66 73 81 90 92 89 83 81 78 65 56 56 53 46 34 29
77 82 88 87 90 83 89 73 72 89 96 96 96 96 96 95 95 93 96 95 95 96 96 96 84 72 72 74 65 62 63 63 57 59 64 73 74 74 72 70 75 79 85 85 79 67 60 57 57 52 40 30 34 37
83 84 91 83 91 90 95 94 93 97 92 93 94 95 95 95 94 97 96 95 96 96 96 97 93 74 75 87 91 88 90 89 80 70 75 81 84 84 84 81 81 81 77 67 62 59 60 56 46 34 34 38 37 38
95 93 89 96 94 94 99 97 99 98 99 98 96 94 94 97 96 96 96 96 96 96 96 96 96 96 95 96 96 92 83 80 71 74 69 79 83 84 82 77 75 69 63 61 62 58 49 38 34 38 40 41 44 46
88 96 95 98 89 94 99 96 100 99 94 95 96 94 96 96 96 96 96 96 96 96 96 96 96 96 96 95 89 83 82 80 76 63 60 68 68 74 73 68 65 66 66 64 58 48 39 39 43 45 47 50 52 47
97 96 93 91 100 98 96 97 97 96 94 86 94 95 96 95 96 96 96 95 96 96 96 96 96 96 94 85 77 73 72 73 70 66 65 65 69 69 68 68 69 70 65 55 45 41 44 48 49 49 51 53 46 37
97 96 99 100 100 100 98 96 96 93 93 88 90 97 96 96 96 96 96 96 96 96 96 96 95 88 81 78 76 73 71 70 69 68 68 68 70 70 72 73 72 64 56 50 48 51 53 53 53 55 55 42 36 35
96 94 96 95 99 100 97 93 94 93 92 95 95 96 94 94 93 89 93 96 96 95 94 90 86 85 84 83 81 79 77 76 76 77 78 78 78 78 78 74 68 63 58 56 58 59 60 59 58 49 33 33 34 32

GFSWCAN_850_rhum_009.txt.gz
RH
86 91 94 93 90 87 91 93 90 88 99 99 96 92 99 100 100 100 98 100 100 94 84 80 68 76 95 91 96 94 94 96 98 97 96 89 89 92 95 82 88 81 96 97 90 94 88 45 42 37 49 44 53 55
91 94 95 94 94 87 84 87 87 90 100 100 98 97 97 98 100 99 100 100 100 97 92 92 83 80 78 77 96 94 99 87 84 91 90 84 77 80 88 96 75 91 78 82 80 74 56 50 50 49 43 48 56 52
93 93 95 94 90 92 88 88 88 86 98 100 97 96 95 95 100 100 99 99 100 100 96 95 88 84 86 84 92 99 93 95 87 70 78 79 75 69 84 87 82 69 67 67 68 57 56 53 49 50 45 46 50 50
95 98 96 96 90 94 89 91 88 88 95 100 93 92 92 97 99 100 98 98 100 96 99 96 95 93 84 84 93 97 100 96 91 84 87 88 89 72 77 61 76 68 72 67 68 62 57 55 49 52 51 50 52 52
99 99 98 98 93 98 93 84 86 91 90 96 88 91 91 97 100 100 100 98 100 98 98 96 93 94 90 89 96 100 100 100 98 93 92 89 85 79 77 68 64 57 61 68 69 56 50 53 50 53 52 53 52 51
99 98 99 100 86 91 83 76 82 91 94 89 88 96 96 93 100 100 99 98 99 100 100 100 97 96 95 95 100 100 100 99 89 89 93 88 85 84 87 77 54 44 40 40 47 44 45 48 56 54 52 53 53 51
89 80 87 89 87 78 74 75 84 59 88 84 90 89 96 88 100 100 92 88 75 100 99 99 97 93 97 97 100 90 90 88 88 85 89 86 83 81 87 90 58 49 45 44 42 47 66 58 61 56 55 57 54 52
76 81 76 81 72 82 75 82 61 79 84 90 84 82 90 97 99 99 94 93 92 99 99 100 100 98 95 98 97 97 93 87 84 89 83 88 81 82 90 73 55 53 53 54 51 46 49 57 61 59 56 54 50 43
80 74 75 70 79 78 81 69 65 85 95 74 84 98 100 99 100 98 98 99 100 97 99 99 100 100 96 96 91 91 95 99 90 95 92 88 90 93 74 70 58 56 51 60 53 54 61 61 62 61 57 50 40 43
64 67 71 75 81 83 82 54 85 87 82 95 100 98 98 99 99 97 100 100 99 100 93 97 93 98 95 93 97 91 97 98 100 94 88 96 96 73 64 61 50 52 50 54 65 80 70 68 63 60 51 43 39 38
50 56 68 72 83 85 41 87 97 98 84 99 100 100 99 100 99 98 100 100 100 100 99 90 92 97 90 92 94 93 100 100 94 94 92 97 98 83 63 61 56 53 52 54 48 53 58 57 60 55 48 43 38 32
43 40 37 36 44 82 92 100 100 97 100 99 99 99 100 100 99 100 99 100 100 97 99 97 94 82 85 76 92 92 95 97 94 90 95 96 86 71 74 70 62 58 57 57 56 58 63 63 57 48 43 38 32 32
36 29 29 30 36 54 96 100 99 99 99 99 99 99 100 100 99 99 98 99 99 100 98 92 97 74 78 76 94 92 95 97 86 87 90 88 82 70 75 72 70 67 65 60 66 65 66 58 50 42 34 33 35 37
41 30 29 26 36 90 100 99 98 100 97 99 100 99 99 99 96 92 94 92 81 91 99 81 92 90 80 91 91 89 96 88 94 96 90 88 79 73 79 76 75 75 67 68 71 68 58 49 39 34 32 36 35 40
46 30 28 29 35 67 98 100 100 100 98 99 99 99 98 99 99 99 93 97 97 98 79 80 84 78 98 91 90 90 96 98 92 87 87 79 76 80 81 78 74 71 69 67 62 53 41 35 36 44 46 46 43 48
45 31 33 29 26 37 64 94 96 100 99 99 99 99 99 97 99 98 99 99 99 88 66 62 97 92 93 93 96 94 93 93 80 91 78 76 83 81 77 72 68 65 62 56 45 37 37 38 38 44 54 54 55 54
49 43 33 28 25 30 72 97 97 99 99 99 99 100 100 96 94 92 94 96 96 77 90 94 83 78 94 100 98 92 88 84 98 83 74 80 84 76 68 65 62 60 49 40 40 40 40 40 41 46 50 60 57 58
55 39 30 30 28 31 93 99 98 99 99 98 99 99 100 92 95 94 91 96 88 80 79 84 86 98 95 91 95 91 99 98 82 76 83 88 83 73 66 61 56 44 41 42 41 41 41 44 47 50 54 62 61 62
53 39 30 30 34 74 99 97 98 98 99 99 98 98 99 100 97 95 92 97 88 71 69 84 91 95 94 94 95 98 89 80 88 90 92 83 71 67 61 55 44 44 44 42 41 43 48 49 48 56 60 64 60 65
41 31 27 27 39 95 98 93 92 98 98 97 100 99 100 99 100 99 97 91 70 58 77 87 89 82 79 77 72 71 72 71 82 95 81 72 66 62 54 48 47 45 44 49 50 52 57 62 68 68 68 68 66 70
34 32 28 37 62 80 92 91 88 98 97 98 97 99 99 100 100 100 98 83 88 100 99 96 84 73 67 62 69 73 74 68 79 90 90 77 64 55 50 47 45 46 47 53 56 62 59 58 68 70 71 72 74 77
46 40 46 56 66 72 93 91 91 94 98 97 95 98 99 99 99 99 100 98 98 99 100 99 91 88 85 85 83 75 72 73 73 81 83 68 64 55 54 54 53 54 53 52 52 57 63 69 74 76 76 79 79 72
44 48 53 58 55 62 65 78 92 91 97 95 95 97 97 98 98 98 97 97 97 96 99 100 91 89 84 83 77 73 71 70 83 85 73 63 61 62 61 61 53 45 52 64 61 63 69 78 81 81 81 77 68 55
56 54 48 58 68 85 70 75 78 93 96 96 96 96 96 97 97 97 96 96 96 98 97 98 98 97 93 86 79 83 87 81 84 74 72 67 76 75 62 54 52 48 44 58 68 72 78 82 84 80 72 60 52 51
56 59 65 81 72 83 96 94 97 95 96 96 96 96 96 96 96 96 95 95 95 96 97 97 97 97 97 98 98 93 95 84 84 95 96 78 57 62 66 64 62 62 66 64 75 79 84 82 77 66 55 53 49 41
59 71 68 95 91 90 97 100 98 96 98 97 96 96 97 96 95 95 93 96 95 95 96 96 96 96 97 97 97 97 96 91 78 68 72 61 53 41 45 58 68 81 86 81 77 80 78 72 61 55 53 47 37 27
71 77 88 85 86 86 90 83 78 95 97 97 96 95 96 95 95 93 96 96 95 95 96 96 96 96 96 96 97 97 95 79 63 52 59 68 65 62 59 63 69 75 84 85 80 74 65 58 56 53 45 30 30 32
78 85 80 85 92 93 96 97 99 100 98 89 92 96 95 94 93 96 96 95 96 95 96 96 96 96 96 97 97 97 97 95 88 88 95 92 86 88 85 74 75 78 80 76 64 59 58 57 52 38 31 33 33 35
96 94 89 98 98 97 100 98 100 100 99 98 97 94 93 96 96 96 95 95 95 95 96 96 96 96 96 96 97 97 97 97 94 96 95 94 91 86 82 78 77 74 65 61 61 59 52 42 34 34 34 36 38 40
88 97 98 100 89 91 92 96 99 99 95 95 94 93 95 95 96 96 96 96 96 95 96 96 95 96 96 96 95 96 96 97 97 83 75 74 75 80 81 73 66 62 61 61 57 49 40 37 38 37 37 40 44 43
97 99 94 95 100 96 96 96 99 99 96 94 96 94 94 95 95 96 96 96 96 96 96 95 96 96 96 96 95 93 84 73 69 64 59 61 68 70 66 64 65 65 62 55 45 40 39 39 40 42 44 45 44 35
96 96 96 100 100 100 98 96 96 95 95 90 96 96 96 96 96 95 95 95 96 95 96 96 95 95 96 94 82 67 63 61 63 63 64 65 66 67 68 69 67 62 54 48 45 45 47 49 50 49 48 43 29 29
97 96 97 96 100 100 100 96 97 96 94 94 95 99 96 96 96 96 95 95 96 95 96 96 96 96 94 83 72 69 68 68 69 71 69 68 69 71 72 68 62 58 55 53 53 55 56 55 52 44 28 28 35 34

GFSWCAN_850_rhum_012.txt.gz
RH
99 98 95 92 92 90 93 92 92 89 89 88 100 98 98 99 100 100 100 100 98 89 83 79 78 82 91 86 94 90 100 99 98 97 94 94 85 93 91 81 88 88 95 87 87 93 86 49 39 37 45 52 58 58
100 98 94 95 95 94 90 84 92 90 86 87 93 99 96 97 100 100 100 99 99 96 94 87 82 79 80 77 82 97 97 92 88 91 93 84 87 94 88 94 75 87 76 87 87 81 61 52 48 51 45 54 60 56
100 100 100 100 96 95 93 92 90 94 86 89 94 97 93 98 99 100 100 99 100 99 97 97 86 84 85 86 83 95 94 88 92 83 85 88 80 78 93 87 88 75 68 78 66 61 56 52 53 48 47 47 51 52
98 99 86 98 99 95 81 96 87 95 91 88 92 92 87 88 99 100 100 99 99 99 98 92 91 93 88 84 91 97 99 98 99 90 89 85 86 72 77 68 84 80 75 71 70 60 57 55 53 49 49 49 51 55
94 98 99 86 79 89 88 83 85 86 91 80 90 88 84 80 100 100 100 98 100 100 99 97 93 89 90 88 94 100 100 100 100 100 99 89 89 80 84 76 73 66 78 75 72 56 53 54 52 51 49 53 53 52
78 76 76 75 75 83 82 87 85 80 88 67 92 87 85 81 99 100 99 98 100 100 99 100 98 94 90 93 99 100 100 100 100 100 94 91 81 82 90 87 58 47 45 50 54 44 49 48 56 53 51 54 53 48
78 76 75 81 73 77 79 75 82 83 51 86 86 89 78 69 98 100 99 100 94 98 100 99 98 98 97 97 99 99 99 100 99 97 95 87 88 85 89 91 61 54 46 46 46 48 68 62 62 57 52 55 52 50
75 57 80 79 70 84 79 82 82 53 85 85 85 71 68 75 96 97 99 99 100 98 99 100 100 98 98 99 97 94 93 94 92 93 87 90 82 84 92 76 62 57 56 56 52 46 47 57 60 59 56 56 56 59
43 43 69 83 75 71 86 68 66 92 96 84 74 81 93 97 100 94 95 97 99 98 98 99 100 100 96 99 94 99 100 98 93 95 95 92 90 93 74 68 62 59 53 60 58 56 60 59 63 62 58 55 48 48
36 35 36 35 34 31 46 83 92 99 88 89 99 100 99 98 100 92 100 100 100 92 100 98 94 98 97 96 97 92 98 99 100 96 92 96 97 74 63 60 54 54 51 54 65 80 72 69 63 62 55 46 38 37
37 35 29 28 30 38 44 90 96 96 83 96 89 100 100 100 100 99 99 100 100 100 100 92 92 97 92 92 94 94 99 100 94 94 94 96 98 87 67 65 62 52 52 51 47 49 56 54 60 57 50 43 38 35
42 40 35 30 26 30 66 100 96 91 96 98 99 98 98 100 99 99 100 100 100 97 99 98 96 83 89 79 90 92 96 97 88 91 96 98 87 71 69 75 66 56 55 56 54 54 60 59 58 51 44 40 34 30
43 46 42 30 28 31 80 98 96 95 95 99 99 98 99 100 99 99 99 100 99 100 99 96 97 78 80 78 95 92 95 94 87 94 95 89 82 74 77 77 72 67 64 60 61 61 62 60 53 45 40 34 31 35
42 43 37 30 35 38 46 98 100 98 99 98 99 98 99 99 98 92 93 94 78 90 98 83 94 90 79 90 90 92 96 88 97 100 89 88 75 72 79 81 75 76 68 63 67 67 62 55 48 41 33 30 33 40
40 40 35 34 38 31 32 58 94 100 100 98 99 98 99 100 100 96 98 98 96 98 85 81 83 76 94 92 88 91 97 97 92 85 84 70 74 80 82 82 76 73 70 71 70 63 55 48 39 36 38 40 40 45
45 40 43 36 28 28 32 59 99 100 99 98 99 99 99 100 99 97 94 94 99 90 71 65 90 87 91 91 97 92 93 93 80 91 69 70 80 83 82 79 76 74 74 72 63 54 46 38 38 39 47 47 46 47
42 46 46 34 25 30 38 100 100 100 100 99 99 99 100 100 100 96 93 92 96 82 89 93 83 78 93 100 93 91 86 82 79 82 70 76 79 82 79 75 73 73 71 63 53 43 38 41 41 43 47 55 55 56
45 42 41 32 27 28 61 100 99 100 100 99 100 99 100 100 99 94 91 90 98 90 77 82 85 99 98 88 91 87 92 96 89 75 77 83 80 77 74 71 70 68 61 52 42 41 39 41 40 47 51 58 58 59
44 42 37 32 31 58 99 98 99 100 97 100 94 96 100 99 99 100 92 95 98 84 70 84 89 93 90 92 88 94 91 76 84 91 90 84 74 70 69 67 65 59 48 43 41 42 43 44 44 50 54 59 55 59
38 33 32 31 31 94 99 92 93 99 99 92 94 98 97 98 98 100 98 97 95 68 79 90 88 82 81 77 79 75 72 68 70 92 86 78 72 66 65 63 55 45 43 46 45 47 53 56 59 60 60 60 58 63
32 32 33 32 49 74 88 90 86 95 100 100 91 97 97 98 99 100 100 98 83 99 99 97 80 71 67 64 61 66 72 68 72 76 83 77 72 65 62 53 47 47 43 47 52 61 60 61 67 67 66 66 68 71
43 39 43 45 60 70 83 91 78 84 99 94 93 91 99 98 99 99 99 99 98 100 100 100 89 74 71 68 72 76 73 74 74 76 76 70 72 64 56 52 49 47 49 50 52 58 63 64 69 71 70 72 74 73
45 47 52 52 54 56 61 64 88 90 100 94 91 97 97 97 97 97 97 96 96 97 98 100 98 89 88 83 78 78 75 75 80 81 74 68 65 61 55 52 46 44 54 62 60 59 65 72 75 74 75 75 69 58
51 56 48 51 64 75 64 67 75 91 94 96 97 95 95 97 96 96 95 96 96 96 96 98 100 100 95 86 81 83 85 84 81 86 78 67 64 67 56 54 56 55 53 59 64 65 70 76 78 79 75 66 55 51
66 53 61 61 76 79 98 94 97 96 100 96 98 95 96 96 96 95 94 94 92 95 95 96 97 97 99 99 98 96 94 87 88 87 89 69 59 68 76 69 64 60 60 61 68 71 74 80 80 72 62 54 51 47
69 61 65 80 86 81 94 98 99 97 98 98 96 94 96 96 95 94 92 96 95 95 95 95 95 96 97 98 99 100 100 100 92 78 87 90 92 85 73 67 68 71 72 69 68 76 80 77 69 60 54 51 45 32
76 74 84 85 86 87 90 85 84 95 100 100 97 97 97 96 95 92 95 95 95 95 95 95 96 96 96 96 98 98 99 98 94 94 97 99 97 72 50 47 60 71 84 89 78 72 67 66 58 55 51 44 30 28
79 78 84 89 94 93 93 98 100 100 100 89 88 97 96 94 93 93 94 95 95 95 95 95 95 96 96 96 96 96 97 98 98 98 96 81 76 73 89 96 96 89 83 78 73 69 61 56 54 51 37 28 29 31
99 96 87 99 100 100 98 94 97 97 98 96 100 96 94 90 91 94 93 95 96 96 96 96 95 96 96 96 96 96 97 96 83 80 80 92 97 97 96 91 83 80 75 69 61 58 56 54 44 32 30 31 34 37
88 97 99 100 96 93 88 92 94 97 95 95 96 93 90 90 93 95 96 96 96 96 96 96 95 96 96 96 96 96 96 96 97 92 90 94 96 95 90 78 73 69 62 59 57 56 48 38 34 34 35 37 39 40
95 99 97 97 96 96 98 96 97 96 96 97 99 98 90 92 96 96 96 96 96 96 95 96 96 96 96 96 96 96 96 96 97 98 98 92 83 78 76 69 63 60 59 58 54 46 39 37 37 38 41 43 44 38
99 96 96 100 100 100 100 100 99 97 96 96 95 99 97 95 95 96 96 95 96 96 96 96 96 96 96 96 95 96 96 94 83 73 68 66 68 67 63 61 62 60 56 49 42 41 40 42 45 47 48 46 33 26
97 97 99 97 100 100 100 98 99 96 96 94 94 97 96 96 96 96 95 95 96 96 96 96 96 96 96 96 94 92 85 70 69 71 69 63 61 62 64 63 61 54 49 47 47 49 51 53 53 47 32 25 32 36

GFSWCAN_850_rhum_018.txt.gz
RH
96 73 81 95 86 89 84 86 86 90 85 90 92 93 89 96 95 99 100 100 100 96 80 77 74 76 84 82 92 88 93 97 99 99 97 95 97 92 92 79 84 84 85 97 84 94 75 55 56 61 54 54 61 64
92 66 82 85 92 88 83 87 79 86 81 81 91 91 92 92 93 98 98 100 98 96 89 80 78 76 75 74 83 86 85 85 89 97 90 87 95 94 90 90 85 94 82 83 80 77 59 57 57 54 56 60 60 58
93 92 92 83 91 82 81 83 85 85 85 79 93 87 86 91 89 99 99 100 100 97 91 88 81 78 77 76 78 82 93 84 90 97 96 92 91 91 97 95 82 80 79 83 75 63 68 61 56 54 55 61 63 59
98 89 71 84 93 91 78 81 84 83 89 89 88 51 79 80 89 96 97 100 100 98 98 85 82 82 81 85 86 86 85 94 91 96 99 95 88 78 86 82 84 78 75 77 78 71 65 57 56 55 57 64 66 68
85 87 55 30 46 91 77 84 74 88 86 64 46 85 84 89 86 70 95 99 100 100 98 97 92 90 91 89 90 94 95 98 99 99 98 97 88 83 90 85 90 84 79 80 78 63 60 56 57 56 54 61 64 61
99 56 52 30 22 47 49 89 88 91 88 88 89 90 70 66 65 85 100 100 100 99 100 100 98 94 91 92 94 98 94 99 100 98 98 82 86 79 93 90 65 60 60 58 62 55 56 59 59 57 54 59 62 62
87 44 68 40 30 26 31 46 87 91 90 92 96 94 79 40 54 89 97 100 100 100 98 99 98 100 100 99 99 99 99 100 98 90 100 98 93 89 94 96 65 58 54 56 57 52 61 62 60 59 54 59 60 61
62 56 47 60 41 34 38 47 87 89 96 95 95 93 60 40 44 61 84 100 99 100 100 100 99 95 100 100 100 99 100 100 99 96 97 98 92 94 98 82 66 62 57 54 57 53 53 54 60 60 58 59 57 53
65 56 65 62 47 44 58 53 54 89 96 84 88 98 95 74 65 84 100 100 99 100 100 99 100 88 98 99 97 99 99 99 98 99 97 98 93 98 81 76 68 68 60 58 60 55 57 58 63 62 58 54 46 46
59 49 58 46 56 58 92 60 41 92 77 82 85 97 99 100 97 100 100 100 100 100 100 99 90 93 98 98 98 97 98 99 100 96 94 99 98 75 64 59 59 61 62 59 63 78 74 72 63 63 56 47 41 42
42 33 50 49 47 68 80 40 52 90 73 86 89 99 86 98 100 100 100 98 100 100 100 97 89 96 93 96 95 94 99 99 98 90 95 84 98 89 76 70 64 62 58 58 53 49 55 55 61 59 54 48 48 49
39 34 39 40 44 49 42 36 35 65 97 98 99 97 97 100 100 99 99 100 100 96 96 98 95 84 92 87 89 94 96 96 99 92 97 96 92 74 73 80 76 63 58 59 54 50 54 58 58 55 52 53 48 42
35 34 36 37 38 42 43 30 24 28 99 98 98 99 99 99 98 98 98 99 94 100 99 97 98 80 83 83 94 92 91 88 88 98 97 93 80 69 74 76 77 68 63 59 55 58 58 61 61 55 54 50 39 36
35 37 35 34 35 41 38 27 23 45 100 99 100 96 98 98 98 99 99 99 93 100 100 84 90 93 82 93 93 96 93 89 97 99 92 90 65 64 75 81 80 73 69 62 61 63 65 64 63 57 48 40 35 31
34 33 31 32 39 36 28 27 31 91 99 100 99 96 98 100 99 100 100 100 96 99 96 82 83 76 94 91 89 93 98 98 96 89 88 62 61 73 78 83 82 77 72 68 67 67 68 65 58 48 43 38 31 32
47 33 36 35 33 29 27 34 93 99 98 100 100 98 99 97 98 99 98 99 93 95 96 81 91 91 86 93 98 99 96 94 81 92 60 59 65 78 82 85 82 75 70 68 69 69 66 59 49 44 42 38 36 33
69 44 46 33 28 26 31 85 98 98 99 98 96 100 99 99 99 100 100 100 98 100 100 95 90 80 91 98 98 90 88 83 73 59 61 60 73 78 83 85 81 77 74 72 70 68 60 52 46 39 41 48 45 49
74 42 40 33 30 27 39 100 97 98 92 92 99 94 92 83 98 98 99 100 100 100 98 93 83 100 93 90 90 88 76 68 69 68 70 74 82 82 85 82 80 77 74 72 69 62 53 46 39 38 40 52 54 59
57 44 33 34 35 34 49 85 97 95 97 96 98 100 99 88 78 79 87 88 100 100 100 100 94 94 91 93 93 68 68 73 77 77 78 82 84 82 83 82 80 78 75 71 64 55 48 42 35 38 43 54 51 56
54 38 32 33 33 28 54 89 93 98 92 96 98 99 100 89 76 83 92 94 99 100 100 99 93 83 84 79 81 82 82 79 79 83 83 82 82 82 80 79 79 79 76 68 58 47 44 44 45 44 43 49 45 50
43 33 34 34 38 34 65 91 96 93 98 99 99 100 90 91 100 99 100 100 100 100 99 99 98 97 89 80 75 70 72 82 73 70 66 78 81 80 78 78 79 78 71 61 52 54 44 40 46 51 49 49 49 51
46 42 45 40 43 65 77 95 97 83 84 99 99 100 100 98 98 98 96 100 98 96 96 96 96 96 97 87 81 70 72 85 80 76 69 69 76 81 79 77 79 75 65 55 49 42 42 42 48 50 52 53 54 57
53 49 45 49 56 58 61 72 90 96 99 99 98 97 98 100 93 87 98 96 96 96 96 95 95 96 96 97 90 79 82 85 80 76 73 74 73 77 77 76 74 65 56 50 46 43 44 51 55 53 54 58 62 66
58 52 59 50 57 55 56 71 78 92 96 97 100 97 90 95 93 99 98 96 94 94 95 95 95 94 97 97 97 97 94 88 85 81 78 76 76 80 80 76 72 61 51 49 50 50 50 55 57 58 58 61 67 63
61 61 62 59 76 75 78 89 100 95 100 100 99 100 95 99 99 100 99 94 81 89 94 94 95 96 95 95 96 97 98 98 89 81 85 85 80 80 83 79 72 64 55 45 54 54 56 56 60 61 65 67 63 55
73 56 75 71 75 71 84 82 98 95 99 100 100 91 89 98 99 96 96 83 84 78 82 92 95 94 94 96 95 96 97 99 100 94 86 86 84 78 79 82 79 71 61 50 45 51 55 60 64 67 71 64 55 51
79 75 66 67 72 78 90 91 87 95 100 100 99 98 100 100 99 89 87 86 77 78 82 87 95 95 94 94 95 96 96 96 97 98 98 97 97 97 97 95 88 59 56 54 54 51 49 61 75 80 63 54 49 43
76 73 87 95 95 87 84 97 100 99 94 90 97 99 100 93 88 76 72 74 80 83 84 88 95 95 95 95 95 96 96 96 96 97 97 97 97 97 97 98 94 91 96 70 60 62 70 88 74 62 54 49 42 31
99 88 76 100 100 100 95 83 84 68 77 80 92 95 91 79 74 74 72 76 81 86 86 88 89 95 95 95 95 95 96 96 96 95 96 95 97 98 98 98 98 98 80 70 88 98 93 69 60 53 48 39 30 28
95 93 94 99 95 90 72 78 84 92 88 85 84 85 82 75 69 71 76 82 87 90 93 94 93 95 95 95 95 96 95 96 96 98 95 96 95 94 96 97 94 73 91 97 96 88 66 57 52 46 35 30 31 35
97 98 96 94 96 90 87 89 93 94 93 92 93 98 88 80 80 82 84 88 92 91 94 94 95 96 95 95 95 96 95 96 96 96 96 96 96 96 97 96 95 96 97 95 92 64 56 51 42 34 32 35 38 40
99 98 100 100 99 100 100 98 97 96 99 100 95 100 96 95 92 88 89 93 93 95 97 96 95 96 95 96 96 96 96 96 96 96 97 97 96 97 97 97 96 97 94 68 57 53 47 39 34 35 38 41 42 38
98 98 100 97 100 100 99 98 100 99 100 100 97 100 98 97 94 89 90 92 94 95 96 96 95 95 95 96 96 96 96 96 96 97 96 97 97 97 97 96 82 62 57 54 49 41 37 37 39 43 44 41 31 22